User: anonymous   Login
Location: Unspecified
(0.0000°N, 0.0000°E)
Time: 07:30:29
(UTC+00:00)
Language:

MERIDIAN 3 - Orbit

View from above orbital plane
View from above orbital plane
View from above satellite
View from above satellite

Ground track
Ground track

The orbit data is extracted from the following two-line orbital elements,

1 37212U 10058A   19082.70625959 -.00000141  00000-0  10000-3 0  9993
2 37212  63.5992 355.0072 7009680 274.0493 311.6227  2.00621108 61449
Epoch (UTC): 23 March 2019 16:57:00
Eccentricity: 0.7009680
inclination: 63.5992°
perigee height: 1563 km
apogee height: 38791 km
right ascension of ascending node: 355.0072°
argument of perigee: 274.0493°
revolutions per day: 2.00621108
mean anomaly at epoch: 311.6227°
orbit number at epoch: 6144

The dashed part of the orbit path shows where the satellite is in the earth's shadow,  

DLR